Filtrer par Nom Sexe Groupe d'age
3 Ballons GranFondo 2001
RG. DOS. TEMPS CAT RG. POINTS
1 140 BESSON JEAN-MARC 06:48:22 D 1 320.00 MARTIGNY, Suisse
2 16 HUGUES RICO 06:50:10 C 1 319.46 Grenoble, France
3 103 MIRANDA DIDIER 06:50:27 D 2 319.37 ST BERNARD DU TOUVET, France
4 7 JASSERAND BRUNO 06:51:44 D 3 318.98 LA MOTTE, FRANCE
5 677 GEVERS FRANCIS 06:52:56 E 1 318.62 RANST, BELGIQUE
6 90 SEVENANTS TOM 06:55:21 D 4 317.89 ZOUTLEEUW, BELGIQUE
7 169 PARDAENS MAARTEN 06:58:42 C 2 316.87 PELLENBERG, BELGIQUE
8 676 GEERINCK WERNER 06:59:51 D 5 316.53 EKEREN, BELGIQUE
9 43 GIORGALLA SERGE 06:59:57 E 2 316.50 paris, France
10 630 SMITS SANDER 07:02:24 C 3 315.75 UTRECHT, Pays-bas
11 258 SPEETJENS BEN 07:02:26 E 3 315.75 SCHIMMERT, Pays-Bas
12 30 LEUCKX MARC 07:02:28 D 6 315.74 LENNIK, BELGIQUE
13 85 VAN LOOY THEO 07:03:35 E 4 315.40 PUTTE, BELGIQUE
15 82 VANDENHOUDT RAF 07:04:56 D 7 314.99 DIEST, BELGIQUE
16 92 BEE SERGE 07:05:45 E 5 314.74 SELONCOURT, FRANCE
17 663 CHABERT DOMINIQUE 07:06:50 D 8 314.41 NIMES, France
18 106 VAN IMPE WALTER 07:08:51 F 1 313.80 GRAMMONT, BELGIQUE
19 176 DEPLANTE PATRICE 07:09:34 E 6 313.59 BALLAISON, France
20 133 SCHWAB PATRICK 07:09:53 F 2 313.49 ST BAUZILLE DE MONTMEL, FRANCE
21 170 MARCOEN MARC 07:10:21 D 9 313.35 PELLENBERG, Belgique
22 54 NIEUWENHUIS HENK 07:10:38 D 10 313.26 RIJSSEN, Pays-Bas
23 146 CHAILLOUX REGIS 07:11:41 E 7 312.95 ROSNY SOUS BOIS, FRANCE
24 80 CHAPUIS JEAN MARC 07:12:20 E 8 312.75 DELLE, FRANCE
25 84 JANSSEN WIM 07:12:33 D 11 312.69 VENRAY, Pays-Bas
26 121 MULLER SEILLER CHRISTINE 07:12:52 A 1 312.59 HAEGEN, France
27 551 VAN EKERT HENDRIK 07:14:58 C 5 311.95 HAMME, BELGIQUE
28 97 POPOVICS PIERRE 07:16:02 E 9 311.63 BOULOGNE BILLANCOURT, FRANCE
29 632 SCHOLMA GEERT 07:16:49 C 6 311.39 UTRECHT, Pays-Bas
30 280 WINTERS JAN 07:17:10 D 12 311.29 ZUTPHEN, Pays-Bas
31 180 MENANT ANDRE 07:17:19 E 10 311.24 CAP D'AIL, FRANCE
32 474 VAN MOSSEVELDE STEFAAN 07:17:37 C 7 311.15 SINT PAUWELS, BELGIQUE
33 168 LEPAUMIER PASCAL 07:18:22 D 13 310.93 NOVAINVILLE, FRANCE
34 150 ESPINOUZE ALAIN 07:18:35 E 11 310.86 BAR LE DUC, FRANCE
35 87 BOLLEN RALPH 07:18:41 C 8 310.83 MEERSSEN, Pays-Bas
36 18 TETAZ OLIVIER 07:20:11 D 14 310.38 MOUXY, France
37 482 DEPARDIEU CLAUDE 07:21:05 F 3 310.10 MELUN, FRANCE
38 125 DENDAL DIDIER 07:21:19 D 15 310.03 LIEGE, BELGIQUE
39 573 KUHLMAN REMCO 07:21:39 C 9 309.93 SPAARUDAN, Pays-Bas
40 35 HIMEUR FRANCIS 07:21:49 D 16 309.88 ORRY LA VILLE, FRANCE
41 78 HUTS OLIVIER 07:22:16 D 17 309.75 TIENEN, BELGIQUE
42 357 VILLE BART 07:22:20 D 18 309.73 TERNAT, Belgique
43 703 VAN BAEL ERIC 07:22:35 E 12 309.65 WESTERLO, BELGIQUE
44 516 HUBERS HENNIE 07:22:37 D 19 309.64 VINKEL, Pays-Bas
45 313 RENSON PIERRE 07:22:58 C 10 309.53 BONCELLES, BELGIQUE
47 135 JEANDEL FRANCIS 07:23:48 F 4 309.28 Mirecourt, France
48 463 MEYER BENOIT 07:24:10 C 11 309.17 SAINT PIERRE DU BOSGUERARD, FRANCE
49 153 PATUEL IAN 07:24:21 D 20 309.12 BEVILLE LE COMTE, France
50 726 DE CATELLE DANY 07:24:23 D 21 309.11 RONSE, BELGIQUE
51 714 SCHICKLER FREDERIC 07:24:25 D 22 309.10 PFASTATT, FRANCE
52 107 ROHMER MARC 07:24:47 E 14 308.98 ASPACH-LE-HAUT, FRANCE
53 105 FREZIERES JEROME 07:25:09 D 23 308.87 MAISONS ALFORT, FRANCE
54 495 MENGIN FRANCIS 07:25:56 E 15 308.64 CORNIMONT, FRANCE
55 702 VRINDTS LOUIS 07:26:45 E 16 308.39 HULSHOUT, Pays-Bas
56 134 RITSERVELOT DANNY 07:26:52 D 24 308.35 GERAARDSBERGEN, BELGIQUE
57 466 DHOLLANDER WIM 07:27:02 E 17 308.30 STEKENE, BELGIQUE
58 37 MATHIS ERIC 07:27:38 D 25 308.12 CORMEILLE EN PARISIS, FRANCE
59 93 ANGST JEAN MARC 07:28:33 E 18 307.84 ALBE, France
60 149 CURT THIERRY 07:28:38 D 26 307.82 VIRIAT, FRANCE
61 81 COECKELBERGHS DANNY 07:28:59 D 27 307.71 TIENEN, BELGIQUE
62 455 RAMBLIERE YANNICK 07:29:08 C 12 307.67 GARCHES, FRANCE
63 136 VAN DEN BROEK MARC 07:29:21 E 19 307.60 WIEKEVORST, Belgique
64 6 CLEMENT LAURENT 07:29:29 D 28 307.56 ANNONAY, France
65 707 MEUNIER ERIC 07:30:10 E 20 307.36 GHLIN, BELGIQUE
66 641 MOORTGAT PAUL 07:30:17 E 21 307.32 HULSHOUT, BELGIQUE
67 118 JACQUIN GERARD 07:30:35 D 29 307.23 BAUME LES DAMES, France
68 321 DEMEYERE LIEVEN 07:31:13 D 30 307.04 ROLLEGEM-KAPELLE, BELGIQUE
69 28 FOUQUET PASCAL 07:31:59 E 22 306.81 DESVRES, FRANCE
70 167 DESCHUYTENEER ANDRE 07:32:42 E 23 306.59 SINT PIETERS LEEUW, BELGIQUE
71 94 GAULANDEAU HUGUES 07:33:15 E 24 306.42 AVARAY, FRANCE
72 360 VANDEKEREKHOVE EDDY 07:33:40 E 25 306.30 TIELT, BELGIQUE
73 101 RENOU DANIEL 07:34:50 E 26 305.94 BOIS D ARCY, FRANCE
74 645 VAN ROMPAEY LOUIS 07:35:47 F 5 305.66 BERLAAR, BELGIQUE
75 99 AGIUS DAMIEN 07:36:19 D 31 305.50 PALAISEAU, FRANCE
76 398 RICHERT JEAN-JACQUES 07:36:27 D 32 305.45 QUATZENHEIM, FRANCE
77 161 DE KETELAERE BART 07:36:31 C 13 305.44 BOECHOUT, BELGIQUE
78 130 MATHE DANIEL 07:36:40 E 27 305.39 BOISSETTES, France
79 670 KILROY SEAN 07:37:03 D 33 305.27 CAMBRIDGE, Royaume-uni
80 382 GOSSET J.MARC 07:37:31 D 34 305.13 HARGICOURT, FRANCE
81 503 WERNETTE GILLES 07:37:48 D 35 305.05 WITTELSHEIM, FRANCE
82 534 CARLIER DIRK 07:38:44 D 36 304.76 VORSELAAR, BELGIQUE
83 519 JORGENSEN ERLING 07:39:08 F 6 304.64 ROSKILDE, DANEMARK
84 615 PETERSEN LARS HOLM 07:39:15 E 28 304.61 NORDBORG, DANEMARK
85 274 STEMAN BAS 07:40:02 D 37 304.37 ZUTPHEN, Pays-Bas
86 472 NEYRINCK PATRICK 07:40:38 D 38 304.19 STEKENE, BELGIQUE
87 628 FRANKEN RONALD 07:40:57 C 14 304.09 TILBURG, Pays-Bas
88 162 CASIMIR IGOR 07:41:42 C 15 303.87 NIVOLAS VERMELLE, France
89 117 PARIS DOMINIQUE 07:42:08 E 29 303.74 BESANCON, FRANCE
90 175 CLAUDEL JEAN BAPTISTE 07:42:24 C 16 303.65 VIZILLE, FRANCE
91 480 GRAFFE STEPHANE 07:42:32 D 39 303.61 PLANCHER BAS, FRANCE
92 158 JADOT JEAN 07:42:37 E 30 303.59 BRUXELLES, BELGIQUE
93 680 SLATS RENE 07:43:04 C 17 303.45 OSS, Pays-Bas
94 131 LOEBY CHRISTIAN 07:44:04 E 31 303.15 VALENTIGNEY, FRANCE
95 354 DECOSTER BOUDEWIJN 07:44:20 E 32 303.07 GOOIK, BELGIQUE
96 732 CROISOT MICHEL 07:44:38 E 33 302.98 CHAUX LA LOTIERE, FRANCE
97 629 HECTORS JOOST 07:44:47 C 18 302.93 UTRECHT, Pays-Bas
98 147 REINDERS JOS 07:45:57 E 34 302.58 HELDEN, Pays-Bas
99 434 MEEKERS FERNAND 07:46:07 E 35 302.53 STABROEK, BELGIQUE
100 171 DAVOURIE ANTHONY 07:46:20 C 19 302.46 HAEDINVAST, FRANCE
101 711 VENTURI JEAN FRANCOIS 07:46:23 C 20 302.45 FOUSSEMAGNE, FRANCE
102 717 GROSS ROBY 07:47:38 E 36 302.07 GEISWILLER, FRANCE
103 138 DEGRAEVE FRANKY 07:47:43 D 40 302.05 HOUTHULST, BELGIQUE
104 88 GRELLIER GERARD 07:47:45 F 7 302.04 AIX LES BAINS, FRANCE
105 287 NOAILLON JEAN-PAUL 07:47:55 F 8 301.99 CHALONS EN CHAMPAGNE, FRANCE
106 678 LIPP MATHIEU 07:48:14 C 21 301.89 BOLLWILLER, FRANCE
107 675 WOODCOCK ANTONY 07:48:23 G 1 301.85 BRENTWOOD, Royaume-Uni
108 399 HACQUIN PATRICK 07:48:25 E 37 301.83 BEHONNE, FRANCE
109 533 HOYON HERVE 07:48:56 D 41 301.68 PORT SUR SAONE, FRANCE
110 542 DEN HOLLANDER ROLAND 07:49:05 D 42 301.63 WOERDEN, Pays-Bas
111 75 FOULOUNOUX THIERRY 07:49:08 E 38 301.62 PARIS, FRANCE
112 288 POPPE KENNETH 07:49:47 D 43 301.42 ZELZATE, BELGIQUE
113 709 FERRY RAYMOND 07:50:02 E 39 301.35 EPINAL, FRANCE
114 489 WELSCH FABRICE 07:50:29 C 22 301.21 ABRESCHVILLER, FRANCE
115 41 VERRIER CLAUDE 07:51:07 G 2 301.02 ARNAGE, FRANCE
116 547 WESSELS FRANS 07:52:48 D 44 300.51 OOSTERHOUT, Pays-bas
118 704 WIJNENS GISLAIN 07:54:00 F 9 300.15 HEIST OD BERG, BELGIQUE
119 275 VAN BEEK ANNELEEN 07:54:06 A 2 300.12 APELDOORN, Pays-Bas
120 254 PAINTER RUSSELL 07:54:27 C 23 300.01 ANERLEY, Royaume-uni
121 374 LE RAY JEAN-CHARLES 07:54:46 D 45 299.91 NANTERRE, FRANCE
122 708 SCHEYDER ANDRE 07:54:50 E 41 299.89 ESCHAU, FRANCE
123 143 MARTY BRUNO 07:55:02 D 46 299.83 DIJON, FRANCE
124 713 DEKREON PIERRE 07:55:49 E 42 299.60 RUELISHEIM, FRANCE
125 79 VAN BRUGGEN RONALD 07:56:49 E 43 299.29 AMSTERDAM, Pays-Bas
126 348 VAN ONGEVAL TOM 07:56:59 C 24 299.24 ROOSDAAL, BELGIQUE
127 518 PELLEGRINI PIERRE 07:57:07 E 44 299.20 VILLIERS LE SEC, FRANCE
128 648 HILLEN TON 07:57:16 F 10 299.16 HELDEN, Pays-Bas
129 603 CALLESEN FREDE 07:57:21 D 47 299.13 SONDERBORG, DANEMARK
130 479 BERNARD PATRICE 07:57:52 E 45 298.98 LE PLESSIS ROBINSON, FRANCE
131 380 DITTEL FRANCK 07:58:08 C 25 298.89 LURE, FRANCE
133 417 CARPENTIER DANNY 07:58:25 E 46 298.81 OELEGEM, BELGIQUE
134 440 STEVENS HUGO 07:58:37 G 3 298.75 KALMTHOUT, BELGIQUE
135 370 VERY VINCENT 07:58:59 C 26 298.64 Morteau, France
136 10 VINIT ANDRE 07:59:11 E 47 298.58 MEYLAN, FRANCE
137 581 THOMAS FRANCOIS 08:00:19 D 49 298.24 VESOUL, FRANCE
138 108 THERON LAURENT 08:00:27 D 50 298.19 ST QUENTIN, FRANCE
139 411 SABIN JEAN CLAUDE 08:00:47 D 51 298.09 RUSTROFF, FRANCE
140 290 CHOCAT ETIENNE 08:00:57 D 52 298.04 PARIS, FRANCE
141 656 GIUSTIZIERI EMMANUEL 08:01:23 C 27 297.91 GRACE HOLLOGNE, Belgique
142 679 VAN HELVOORT ARNO 08:01:39 D 53 297.83 BEUNINGEN, Pays-Bas
143 295 WEBER SERGE 08:02:10 F 11 297.68 SOUDRON, FRANCE
144 100 DANIEL J.LUC 08:03:08 E 48 297.38 LA BASTIDONNE, FRANCE
145 655 VAN ELSACKER JAN 08:03:47 D 54 297.19 ZOERSEL, BELGIQUE
146 642 TORFS LEON 08:05:11 F 12 296.76 SCHRICH, BELGIQUE
147 504 STEIDLER LOTHAR 08:05:15 D 55 296.74 LOKEREN, BELGIQUE
148 120 MULLER THIERRY 08:05:47 D 56 296.58 HAEGEN, FRANCE
149 302 MOENS MARIO 08:05:56 D 57 296.54 WACHTEBEKE, BELGIQUE
150 265 DEN BESTEN RENE 08:07:34 D 58 296.04 APELDOORN, Pays-Bas
151 368 GROSKOPF STEPHANE 08:08:02 C 28 295.90 BRUNSTATT, FRANCE
152 539 ELFRINK MARCEL 08:08:19 E 49 295.81 APELDOORN, Pays-bas
153 443 VANDEBEEK ARMAND 08:08:38 F 13 295.72 DIEPENBEEK, BELGIQUE
154 318 BUZIT PATRICE 08:09:04 E 50 295.59 ROMIGNY, FRANCE
155 450 VIENNET PASCAL 08:09:47 D 59 295.37 ETALANS, FRANCE
156 437 NOELS PATRICK 08:10:01 E 51 295.30 VARSENARE-BELGIQUE, BELGIQUE
157 638 VERHOEVEN HENRI 08:10:10 D 60 295.25 DRUNEN, Pays-Bas
158 142 WINANDY JEAN FRANCOIS 08:10:19 E 52 295.21 FLORIFFOUX, Belgique
159 690 BELUCHE DENIS 08:10:23 E 53 295.19 SAINT GERMAIN, France
160 2186 ROGGEMAN CHRIS 08:10:47 D 61 295.07 BERLARE, BELGIQUE
161 745 MARTIN JEROME 08:11:45 C 29 294.78 GENEVILLE, FRANCE
162 435 MERMANS EDWARD 08:12:18 F 14 294.61 Mol, Belgique
163 115 RICHEROT ERIC 08:12:24 D 62 294.58 CHATILLON EN MICHAILLE, FRANCE
164 141 HOSY PATRICK 08:14:26 E 54 293.96 MANOM, FRANCE
165 625 LEEUWIS JAN-WILLEM 08:14:52 C 30 293.83 UTRECHT, Pays-bas
166 496 CAUSERET ERIC 08:15:01 D 63 293.79 ROCHESSON, FRANCE
167 522 DESCHAMP OLIVIER 08:15:09 D 64 293.75 MOIVRE, FRANCE
168 681 GUIGNET PASCAL 08:15:12 E 55 293.73 JULIENAS, FRANCE
169 540 VAN DEN BRINK JAN 08:15:51 E 56 293.54 ARNHEM, Pays-Bas
170 653 BEBAR ALAIN 08:16:20 E 57 293.39 ANNECY LE VIEUX, FRANCE
171 48 DICKHOUT JAN 08:16:28 F 15 293.35 EINDHOVEN, Pays-Bas
172 122 FORMET LUC 08:16:46 D 65 293.26 VESOUL, FRANCE
173 422 DE HOON MICHEL 08:16:55 E 58 293.21 SCHILDE, BELGIQUE
174 511 VAN DEN ABBEELE GERT 08:17:00 D 66 293.19 LAARNE, BELGIQUE
175 684 DEBARNOT LUCIEN 08:17:39 F 16 292.99 PARAY LE MONIAL, FRANCE
176 102 VIDY CHRISTOPHE 08:17:51 D 67 292.93 PARIS, FRANCE
177 609 HANSEN JENS LAUSTEN 08:18:10 D 68 292.83 SONDERBORG, DANEMARK
178 426 DEHOON JERRY 08:19:03 E 59 292.57 EKEREN (ANTW), BELGIQUE
179 637 VAN DE GRIENDT HANS 08:20:07 E 60 292.25 DRUNEN, Pays-Bas
180 728 PETER DANIEL 08:20:19 E 61 292.19 STRASBOURG, FRANCE
181 631 HULSHOF FOLKWIN 08:20:23 C 31 292.17 UTRECHT, Pays-Bas
182 337 PAUMEN MATHY 08:20:38 D 69 292.09 SOUMAGNE, BELGIQUE
183 710 PAGUET J.LOUIS 08:21:13 E 62 291.91 AUTHUME, FRANCE
184 741 OOSTDIJK RENE 08:21:37 E 63 291.79 RIDDERKERK, Pays-Bas
185 89 MARQUIS JEAN 08:22:07 F 17 291.64 AIX LES BAINS, FRANCE
186 356 VAN HASSEL PHILIPPE 08:22:26 D 70 291.55 TOLLEMBEEK, BELGIQUE
187 552 VERMEIR BART 08:22:38 C 32 291.48 ZELE, BELGIQUE
188 724 HULSMANS KOEN 08:22:47 C 33 291.44 ZONHOVEN, BELGIQUE
189 29 GRANON FRANCOIS 08:23:03 F 18 291.36 LES MILLES, FRANCE
190 433 MAES PAUL 08:23:32 E 64 291.21 ZWIJNDRECHT, BELGIQUE
191 535 CORTHOUT JOHN 08:24:07 E 65 291.04 VORSELAAR, BELGIQUE
192 40 FEDENSIEU OLIVIER 08:24:18 D 71 290.98 PARIS, FRANCE
193 500 TELLIER GERARD 08:24:26 F 19 290.94 RIXHEIM, FRANCE
194 659 SCHROIFF THOMAS 08:24:33 D 72 290.90 HEUSENSTAMM, ALLEMAGNE
195 113 PARIS JEAN MICHEL 08:24:37 E 66 290.88 BESANCON, France
196 608 SORENSEN JAN 08:24:43 D 73 290.85 SONDERBORG, DANEMARK
197 619 AERTS PETER 08:24:47 E 67 290.83 SONDERBORG, DANEMARK
198 259 JENNEN WIM 08:25:11 E 68 290.71 STEIN, Pays-Bas
199 432 LIBOT HENRI 08:25:20 E 69 290.67 BRASSCHAAT, BELGIQUE
200 39 LAUNAY MICHEL 08:25:34 G 4 290.60 CHEVREUSE, FRANCE
201 333 BESSOT DIDIER 08:26:02 D 74 290.46 VUILLECIN, FRANCE
202 292 MASSET FRANCIS 08:26:07 E 70 290.43 FERE CHAMPENOISE, FRANCE
203 436 MEYVIS TONNY 08:26:21 F 20 290.36 BRASSCHAAT, BELGIQUE
204 110 JORIS ALEX 08:26:34 E 71 290.29 MARCHE EN FAMENNE, BELGIQUE
205 577 COULON J.CLAUDE 08:26:43 F 21 290.25 BREST, FRANCE
206 576 VAN OS STEFAN 08:28:30 D 75 289.71 HAAKSBERGEN, Pays-Bas
207 747 KOENIG CHARLES 08:29:05 F 22 289.53 ST AVOLD, FRANCE
208 739 VAN WINGERDEN HANS 08:29:19 E 72 289.46 RIDDERKERK, Pays-Bas
209 165 TROY JACQUELINE 08:30:04 B 1 289.24 HENIN BEAUMONT, FRANCE
210 509 VAN PARYS HENK 08:30:11 D 76 289.20 GENT, BELGIQUE
211 465 DHOLLANDER PIET 08:30:14 E 73 289.19 STEKENE, BELGIQUE
212 375 CLAVEL CHRISTOPHE 08:30:22 C 34 289.14 BOIS COLOMBES, FRANCE
213 164 BLANQUET OLIVIER 08:30:25 D 77 289.13 QUIERY LA MOTTE, FRANCE
214 369 SLINGERLAND RICHARD 08:30:28 D 78 289.12 GOUDA, Pays-Bas
215 467 DHOLLANDER RIK 08:30:41 F 23 289.05 NIEUWKERKEN-WAAS, BELGIQUE
216 460 ROLET CHRISTOPHE 08:30:51 D 79 289.00 ST MENEHOULD, FRANCE
217 98 LACOSTE JEAN-LUC 08:30:55 E 74 288.98 TAIN-L HERMITAGE, France
218 253 PARIJS GUY 08:31:02 D 80 288.94 BUGGENHOUT, BELGIQUE
219 8 RASKIN MADELEINE 08:31:06 B 2 288.92 SPRIMONT, BELGIQUE
220 123 LONDAITSBEHERE JEAN 08:31:18 G 5 288.86 ORRY LA VILLE, FRANCE
221 428 ACCOE ROBERT 08:31:46 F 24 288.72 MARIAKERKE, BELGIQUE
222 303 DEMEUSY JACQUES 08:31:51 E 75 288.70 VILLERS LE SEC, FRANCE
223 725 GALL PHILIPPE 08:32:38 E 76 288.46 RIEDISHEIM, FRANCE
224 49 ARENS JEAN CLAUDE 08:33:08 F 25 288.31 FROIDECONCHE, FRANCE
225 172 BEVILACQUA FILIPPO 08:33:11 F 26 288.29 VENCE, FRANCE
226 544 BYNEN HENRI 08:33:35 E 77 288.17 MEYEL, Pays-Bas
227 298 GAUTHERON BRICE 08:33:37 D 81 288.16 ILLZACH, FRANCE
228 114 TOCZE LAURENT 08:33:41 D 82 288.14 CHATILLON EN MICHAILLE, FRANCE
229 376 BOUTTIER ERIC 08:33:44 E 78 288.13 MONTESCOURT LIZEROLLES, FRANCE
230 727 VANCOPPENOLLE BART 08:33:48 C 35 288.11 RONSE, BELGIQUE
231 324 MERLET JEAN PIERRE 08:33:51 E 79 288.09 GRAND COMBE CHATELEU, FRANCE
232 654 KOCH ROGER 08:33:52 E 80 288.09 LUTTERBACH, FRANCE
233 515 EGBERTS FRANK 08:34:30 C 36 287.89 Amstelveen, Pays-Bas
234 459 FRANCART CHRISTOPHE 08:35:01 D 83 287.74 ST MENEHOULD, FRANCE
235 698 KAPP JACQUES 08:35:20 F 27 287.64 LEUDELANGE, 23
236 672 CLAES MEDARD 08:35:47 F 28 287.51 NEERPELT, BELGIQUE
237 471 HEYNINCK PATRICK 08:36:03 E 81 287.43 SINT PAUWELS, BELGIQUE
238 633 TREFFERS JAN 08:36:06 D 84 287.41 HAARSTEEG, Pays-Bas
239 468 DULLAERT WERNER 08:36:42 F 29 287.23 SINT GILLIS WAAS, BELGIQUE
240 666 COUCHMAN TONY 08:36:50 E 82 287.19 HARLOW, Royaume-Uni
241 446 RADIX CHRISTIAN 08:36:55 D 85 287.16 VIRIAT, FRANCE
242 404 VAN LANDSCHOOT BART 08:37:15 C 37 287.06 MARIAKERKE(GAND), BELGIQUE
243 442 VAN LEUGENHAEGHE RUDI 08:37:28 E 83 287.00 ZOERSEL, BELGIQUE
244 301 ANTON LAURENT 08:38:12 D 86 286.77 DIJON, FRANCE
245 403 POPPE DIRK 08:38:28 D 87 286.69 ZELE, BELGIQUE
246 412 FRANK J.MICHEL 08:38:30 E 84 286.68 MANOM, FRANCE
247 658 NEUBER ROBERT 08:39:24 D 88 286.41 WALDALGESHEIM, ALLEMAGNE
248 497 CHASTAN WILLIAM 08:39:33 E 85 286.37 HYET, FRANCE
249 126 RICKARD JULIAN 08:39:57 C 38 286.25 EWELL, Royaume-Uni
250 456 MAUFFRAY DENIS 08:40:46 C 39 286.00 SELTZ, FRANCE
251 148 PROTHE EMMANUEL 08:40:55 D 89 285.95 AMAGE, FRANCE
252 26 PEGUIN BERNARD 08:41:31 F 30 285.77 COUPVRAY, FRANCE
253 104 MIRANDA EDITH 08:41:59 A 3 285.63 ST BERNARD DU TOUVET, FRANCE
254 396 ESSELIN GILLES 08:42:09 E 86 285.58 CHATENOIS, FRANCE
255 349 VAN ONGEVAL LUC 08:43:56 F 31 285.04 OETINGEN, BELGIQUE
256 430 JONGENNEELEN PIERRE 08:44:47 E 87 284.78 KAPELLEN, BELGIQUE
257 129 PERRIN JEAN 08:44:55 F 32 284.74 JUAN LES PINS, FRANCE
258 154 FONTAINE HERVE 08:45:18 D 90 284.63 COLMAR, FRANCE
259 76 COPPENS LAURENT 08:45:27 E 88 284.58 ANGICOURT, FRANCE
260 512 GUERCHOUX DENIS 08:46:02 D 91 284.41 BLENOD LES PONT A MOUSSON, FRANCE
261 525 VAN THILLO GINO 08:46:23 D 92 284.30 KALMTHOUT, BELGIQUE
262 532 HENDRIKS MARCO 08:46:49 D 93 284.17 BEUNINGEN, Pays-Bas
263 151 DOUETTE HERVE 08:47:05 D 94 284.09 LUXEUIL LES BAINS, FRANCE
264 345 POUILLON SEBASTIEN 08:47:07 C 40 284.08 VITRY SUR SEINE, FRANCE
265 565 BEKKERS JO 08:47:42 D 95 283.90 Tienen, Belgique
266 566 HULSMANS NICO 08:47:46 E 89 283.88 ZONHOVEN, BELGIQUE
267 673 MERTES LUC 08:47:57 E 90 283.83 AARTSELAAR, BELGIQUE
268 326 ROSSIER ALAIN 08:48:50 E 91 283.56 HOUTAUD, FRANCE
269 564 POEL PETER 08:49:25 D 96 283.38 ZONHOVEN, BELGIQUE
270 441 VAN EYCK LINDA 08:50:05 A 4 283.18 SCHILDE, BELGIQUE
271 695 GIRARD THIERRY 08:50:05 E 92 283.18 FOUGEROLLES, FRANCE
272 23 IEHL FREDERIC 08:50:12 D 97 283.14 PARIS, FRANCE
273 9 PIRONT J.PIERRE 08:50:19 E 93 283.11 LOUVEIGNE, BELGIQUE
274 160 MAHUT BRUNO 08:50:22 D 98 283.10 BEURE, France
275 722 PEULEN DIMITRI 08:50:27 C 41 283.07 TEGELEN, Pays-Bas
276 721 MONTULET JOHN 08:50:37 D 99 283.02 VENLO, Pays-Bas
277 718 LUCAS RAPHAEL 08:51:04 E 94 282.88 DILBEEK, BELGIQUE
278 315 DE PAUW PHILIPPE 08:51:19 E 95 282.81 BAUFAMS (CHAUDFONTAINE), BELGIQUE
279 644 VAN GOETHEN BERNARD 08:51:22 G 6 282.79 HOUTVENNE, BELGIQUE
280 626 GEERTS MARCEL 08:51:30 G 7 282.75 KALMTHOUT, BELGIQUE
281 531 STEVENS GUY 08:51:36 E 96 282.72 KALMTHOUT, BELGIQUE
282 527 VAN GEEL JEF 08:51:41 D 100 282.70 ESSEN, Belgique
283 720 CRAPS JEAN PAUL 08:51:51 F 33 282.65 ZELLIK, BELGIQUE
284 719 CRAPS J.LUC 08:51:56 E 97 282.62 ZAVENTEM, BELGIQUE
285 738 HOORN ED 08:52:18 E 98 282.51 POORTUGAAL, Pays-Bas
286 528 COOLS DIRK 08:53:08 D 101 282.26 ESSEN, BELGIQUE
287 401 SEGARRT RUDI 08:53:40 D 102 282.10 DEINZE, BELGIQUE
288 350 MESSINA FRANCK 08:53:44 D 103 282.08 CREIL, FRANCE
289 119 DELVAEL PHILIPPE 08:54:00 D 104 282.00 LEDEGEM, BELGIQUE
290 305 BOLSENBROEK MAURICE 08:54:21 C 42 281.89 APELDOORN, Pays-Bas
291 174 PEETERS OMER 08:54:24 E 99 281.88 KALMTHOUT, BELGIQUE
292 682 ADOIR DANIEL 08:54:37 F 34 281.81 ST AMOUR BELLEVUE, FRANCE
293 431 LIA PAUL 08:55:43 E 100 281.48 DIEPENBEEK, BELGIQUE
294 563 DESIMPELE ROGER 08:55:58 E 101 281.40 ZONHOVEN, BELGIQUE
295 697 D HOOGE MARC 08:56:04 D 105 281.37 RAMELDANGE, LUXEMBOURG
296 530 VAN BOXEL RIK 08:56:10 E 102 281.34 KAPELLEN, BELGIQUE
297 262 VAN LAAR GERRIT 08:56:16 E 103 281.31 VAASSEN, Pays-Bas
298 362 COCQUYT MARNIX 08:57:40 F 35 280.89 WACHTEBEKE, BELGIQUE
299 355 REYNOLDS PHILIP 08:58:12 D 106 280.73 EDENBRIDGE KENT, Royaume-Uni
300 617 BALLEGAARD PER 09:00:41 D 107 279.97 SONDERBORG, DANEMARK
302 166 RICO LAURE 09:01:16 A 5 279.80 GRENOBLE, FRANCE
303 622 NISSEN PER BERG 09:01:26 E 104 279.75 NIVA, DANEMARK
304 627 VAN GLABBEEK PETER 09:01:41 C 43 279.67 EINDHOVEN, Pays-Bas
305 393 ROBERT CLAUDE 09:03:12 F 37 279.21 ST CLAUDE, FRANCE
306 646 VANMARSENILLE ROHNNY 09:03:19 D 108 279.18 WACHTEBEKE, BELGIQUE
307 314 MARECHAL ALAIN 09:03:40 F 38 279.07 BEAUFAYS, BELGIQUE
308 492 FOUBERT BERT 09:03:57 F 39 278.99 NIEUWKERKEN, BELGIQUE
309 505 DE GROOTE GEORGES 09:04:09 F 40 278.93 SINT-AMANDSBERG, BELGIQUE
310 173 CLERGET SYLVAIN 09:04:35 E 105 278.79 LUXEUIL LES BAINS, FRANCE
311 635 MUSTERS WIM 09:05:01 F 41 278.66 OUDHEWSDEN, Pays-Bas
312 383 FOURCROY ALAIN 09:05:28 E 106 278.53 VIMY, FRANCE
313 457 AUBERT PIERRE 09:05:57 E 107 278.38 LE SYNDICAT, FRANCE
315 261 VAN LAAR ALFRED 09:06:58 E 108 278.07 APELDOORN, Pays-Bas
316 754 ABEL THIERRY 09:09:03 E 109 277.44 ELOYES, FRANCE
317 582 CORONADO JEAN PIERRE 09:09:19 E 110 277.36 PONTOISE, FRANCE
318 447 BOISTEAU PASCAL 09:09:31 D 109 277.30 ATTIGNAT, FRANCE
319 273 RUNDERKAMP TOM 09:09:50 D 110 277.21 BREDA, Pays-Bas
320 144 PLET MICHEL 09:09:58 G 8 277.17 PERRIERS LA CAMPAGNE, FRANCE
321 744 LEMOSY CLAUDE 09:10:25 E 111 277.03 CHAGEY, FRANCE
322 611 HILLER JURGEN 09:10:51 E 112 276.90 SONDERBORG, DANEMARK
323 397 MACHIELS JEAN-MARIE 09:11:06 D 111 276.82 SINT-TRUIDEN, BELGIQUE
324 439 SOMERS PAUL 09:12:34 F 43 276.38 BRECHT, BELGIQUE
325 567 ZEGERS JAN 09:13:43 F 44 276.03 TERNEUZEN, Pays-Bas
326 506 ROYER BERNARD 09:14:01 E 113 275.94 BELFORT, FRANCE
327 449 CLERICI LUDOVIC 09:14:16 E 114 275.87 BELFORT, FRANCE
328 444 VAN GRIEKEN JEAN 09:14:49 F 45 275.70 MOL, BELGIQUE
329 394 KINZIGER DIDIER 09:15:33 E 115 275.48 ORMES, FRANCE
330 752 BROER MARKUS 09:15:44 E 116 275.42 BREISACH, ALLEMAGNE
331 731 MOEBES TORSTEN 09:15:49 D 112 275.40 MUNICH, ALLEMAGNE
332 729 MANGANG PATRICK 09:15:52 D 113 275.38 DOSSENHEIM, ALLEMAGNE
333 478 FRANSEN ERIK 09:15:57 D 114 275.36 WOMMELGEM, BELGIQUE
334 381 PERROUELLE CHRISTIAN 09:17:30 F 46 274.89 BLOTZHEIM, FRANCE
335 753 BROER STEPHAN 09:17:39 D 115 274.84 BOLLSCHWEIL, ALLEMAGNE
336 405 CHINOTTI CLAUDE 09:17:52 E 117 274.78 COMPERTRIX, FRANCE
337 96 SIMONEAU ALAIN 09:18:39 F 47 274.54 VARENGEVILLE SUR MER, FRANCE
338 358 LEGROS ALAIN 09:19:03 E 118 274.42 SERAING, BELGIQUE
339 483 PIOVANACCI DANIEL 09:19:45 F 48 274.21 MARIGNANE, FRANCE
340 485 RICHE ALAIN 09:20:00 E 119 274.13 PUTEAUX, FRANCE
341 155 FABRY BERNARD 09:21:43 E 120 273.61 JAMBES, BELGIQUE
342 284 LEROY SYLVAIN 09:21:57 E 121 273.54 LAVAU, FRANCE
343 277 VAN FELIUS PIETER 09:22:11 D 116 273.47 APELDOORN, Pays-Bas
344 177 FLEURY EMMANUEL 09:24:14 D 117 272.85 DRAVEIL, FRANCE
345 750 PELTIER FRANCIS 09:24:47 F 49 272.68 PLAPPEVILLE, FRANCE
346 705 DE HAES JULES 09:26:00 E 122 272.32 HEIST OLD BERG, BELGIQUE
347 367 GRANDCLEMENT ALAIN 09:26:42 E 123 272.10 BELLEGARDE, FRANCE
348 347 ENGEL OLIVER 09:27:12 D 118 271.95 GESTUNGSHAUSEN, ALLEMAGNE
349 730 KOTH GUIDO 09:27:16 D 119 271.93 ILVESHEIM, ALLEMAGNE
350 346 HARTENSTEIN BERNHARD 09:27:19 D 120 271.92 ANGELBACHTAL, ALLEMAGNE
351 178 BOSCARDIN PIERANGELO 09:28:28 E 124 271.57 VIGNEUX SUR SEINE, FRANCE
352 498 DEMARCHE LEOPOLD 09:28:31 F 50 271.55 BAILLONVILLE, BELGIQUE
353 536 DE CNODDER HUGO 09:29:05 F 51 271.38 VORSELAAR, BELGIQUE
354 593 MOELLER KARSTEN 09:29:22 E 125 271.30 HUIDOURE, DANEMARK
355 385 LIEM DJOEN 09:29:30 E 126 271.26 AMSTERDAM, Pays-Bas
356 77 LEBOURGEOIS CHRISTIAN 09:29:33 E 127 271.24 CAEN, FRANCE
357 387 NIVET PIERRE 09:29:38 C 44 271.22 MORVILLARS, FRANCE
358 413 ROUSSEAU PIERRE 09:32:24 E 128 270.38 GEMBLOUX, BELGIQUE
359 462 MICHEL JEAN-CLAUDE 09:32:53 E 129 270.23 REMIREMONT, FRANCE
360 749 PARET GILLES 09:33:26 D 121 270.07 WAHLBACH, FRANCE
361 650 HOUARD MICHEL 09:33:45 E 130 269.97 LUXEUIL LES BAINS, FRANCE
362 580 BONG DETLEF 09:35:21 E 131 269.49 KOLN, ALLEMAGNE
363 578 DE ZWART NIKO 09:35:46 C 45 269.36 DEN HAAG, Pays-Bas
364 651 GOUBERT J.MARC 09:36:03 E 132 269.27 ST SAUVEUR, FRANCE
365 647 RICHARD PHILIPPE 09:36:09 E 133 269.25 LURE, FRANCE
366 291 VANDERVELDEN FILIP 09:36:15 F 52 269.21 DILBEEK, BELGIQUE
367 649 COX JAN 09:37:12 E 134 268.93 HELDEN BERINGE, Pays-Bas
368 683 MORAT MICHEL 09:37:40 F 53 268.79 ST AMOUR BELLEVUE, FRANCE
369 585 VANDEVERT JOS 09:37:46 F 54 268.76 AS, BELGIQUE
370 584 MUFFELS PAUL 09:37:48 F 55 268.75 ZUTENDAAL, BELGIQUE
371 464 VIDALOU PHILIPPE 09:38:13 D 122 268.62 COLMAR, FRANCE
372 557 BACHA SALAH 09:39:50 D 123 268.13 MAISONS ALFORT, FRANCE
373 538 WIJNANDS ALWIN 09:39:59 C 46 268.09 SCHIJNDEL, Pays-Bas
374 716 STRENAER GUILLAUME 09:40:03 F 56 268.06 ITTERBEEK, BELGIQUE
375 473 SMET MARTIN 09:40:16 D 124 268.00 SINT NIKLAAS, BELGIQUE
376 597 BOE PREBEN 09:40:30 F 57 267.93 TOMMERUP, DANEMARK
377 689 PERRET PIERRE 09:41:04 F 58 267.76 VILLEFRANCHE SUR SAONE, FRANCE
378 424 DE VOS DANIEL 09:41:26 E 135 267.65 ZOERSEL, BELGIQUE
379 335 BORGEOT JEAN MARC 09:42:01 E 136 267.47 LES GRANGETTES, FRANCE
380 359 BABILOTTE PASCAL 09:42:05 E 137 267.45 ESSIGNY-LE-PETIT, France
381 409 CAMPS FILIP 09:42:39 C 47 267.28 MEEUWEN-GRUITRODE, BELGIQUE
382 112 MARTIN ANDRE 09:43:33 G 9 267.01 VAUX EN BUGEY, FRANCE
383 639 VERHOEVEN EVELINE 09:43:40 A 6 266.97 DRUNEN, Pays-Bas
384 445 WUYTS GUIDO 09:43:49 F 59 266.93 STABROEK, BELGIQUE
386 470 FIGEYS MODEST 09:44:53 E 139 266.60 VRASENE, BELGIQUE
387 438 PEETERS LEOPOLD 09:45:11 F 60 266.51 WUUSTWEZEL, BELGIQUE
388 257 MARTIN MICHEL 09:46:31 F 61 266.11 LES ABRETS, FRANCE
389 137 MICHIELS ANDRE 09:47:18 F 62 265.87 BRUXELLES, BELGIQUE
390 109 DE LONGUEVILLE PHILIPPE 09:47:48 E 140 265.72 JAMIOULX, BELGIQUE
391 502 VERVECKEN ALAIN 09:47:56 E 141 265.68 ALSEMBERG, BELGIQUE
392 281 THOMAS PHILIPPE 09:47:59 E 142 265.67 EPINAL, FRANCE
393 606 LARSEN HENNING 09:49:00 D 125 265.36 GRASTEN, DANEMARK
394 501 VANDERSTEEN JEAN-LOUIS 09:49:15 E 143 265.28 SINT PIETERS LEEUW, BELGIQUE
395 351 NAVEZ BENOIT 09:49:18 E 144 265.27 GERPINNES, BELGIQUE
396 693 PAALVAST KEES 09:49:44 F 63 265.14 , Pays-Bas
397 407 KUIPERS ERWIN 09:49:49 C 48 265.11 LUZERN, SUISSE
398 408 MEIJER ISABELLE 09:49:56 A 7 265.08 LUZERN, SUISSE
399 451 BLUYSSEN HANS 09:50:03 E 145 265.04 GELEEN, Pays-Bas
400 652 SEPPION MARC 09:50:21 F 64 264.95 HAMONT ACHEL, BELGIQUE
401 338 MARIVOET OLIVIER 09:50:44 E 146 264.83 ACOZ, BELGIQUE
402 95 ROULLIN PHILIPPE 09:50:58 D 126 264.76 LE CHATELET EN BRIE, FRANCE
403 712 BRUSCHI DENIS 09:52:36 D 127 264.27 BELFORT, FRANCE
404 83 SCHOUTEN MICHIEL 09:52:49 D 128 264.20 ZOELEN, Pays-Bas
405 116 GUICHARDON GEORGES 09:52:52 F 65 264.19 CHATILLON EN MICHAILLE, FRANCE
406 340 DERMINE PIERRE 09:53:27 E 147 264.01 NALINNES, BELGIQUE
407 640 VON FON GERARD 09:54:54 E 148 263.57 DRUNEN, Pays-Bas
408 737 BOOGAERDT JOS 09:55:03 E 149 263.53 ROTTERDAM, Pays-Bas
409 341 MONFORTI YVES 09:55:09 E 150 263.50 MONT SUR MARCHIENNE, BELGIQUE
410 312 ROUYER GéRARD 09:55:10 E 151 263.49 CHALONS EN CHAMPAGNE, FRANCE
411 342 MALLET LAURENT 09:55:47 E 152 263.31 MONT SUR MARCHIENNE, BELGIQUE
412 624 LOUYET MARCEL 09:57:06 F 66 262.91 CHATELINEAU, BELGIQUE
413 558 BALAUD ALAIN 09:59:42 E 153 262.12 EPINAL, FRANCE
414 406 DENITTIS ENZO 10:00:10 E 154 261.98 GENK, BELGIQUE
415 545 BIJKERK PETER 10:00:56 E 155 261.75 ARNHEM, Pays-Bas
416 320 MICHELOT HUBERT 10:01:21 F 67 261.62 ST POUANGE, FRANCE
417 490 JEANNEMEZ JEAN-PAUL 10:01:53 E 156 261.46 DELUZ, FRANCE
418 491 SAVINA CLAUDE 10:01:57 F 68 261.44 CHAMPLIVE, FRANCE
419 429 JACOBS JOZEF 10:02:01 E 157 261.42 OUD TURNHOUT, BELGIQUE
420 47 FARGUES HENRI 10:02:05 F 69 261.40 MURAT SUR VERBE, FRANCE
421 22 FARGUES CLAUDINE 10:03:54 B 3 260.85 MURAT SUR VEBRE, FRANCE
422 308 VAN HEUSDEN PETER 10:06:17 E 158 260.13 RIJSBERGEN, Pays-Bas
423 27 BOITIER JEAN CLAUDE 10:07:47 G 10 259.68 PARIS, FRANCE
424 371 LOUIS CLAUDE 10:07:54 E 159 259.64 AWANS, BELGIQUE
425 688 COLLARD AUDREY 10:08:41 A 8 259.40 COURTISOLS, FRANCE
426 514 VAN DIJK GERRIE 10:08:43 E 160 259.39 DOETINCHEM, Pays-Bas
427 687 COLLARD PATRICK 10:08:43 F 70 259.39 SARRY, FRANCE
428 481 VAN CAPPELLE KAREL 10:12:51 E 161 258.14 CAPELLE AAN DEN IJSS, Pays-Bas
429 554 MERCKEN GHISLAIN 10:13:43 F 71 257.88 GENK, BELGIQUE
430 306 POIESZ WIBERTUS 10:16:13 F 72 257.12 HARLINGER, Pays-Bas
431 572 KOEMAN JAN 10:17:02 E 162 256.88 SCHAGEN, Pays-Bas
432 562 BOURGUIGNON HERMAN 10:17:47 E 163 256.65 LANDEN, BELGIQUE
433 699 VAN DER NEUT DICK 10:18:01 E 164 256.58 DELAM, Pays-Bas
434 696 REINGPACH PHILIPPE 10:20:19 E 165 255.88 ILLFURTH, FRANCE
435 488 BELIARD JEAN PAUL 10:25:58 E 166 254.18 RUVIGNY, FRANCE
436 612 TODSEN JORGEN PETER 10:27:26 D 129 253.73 NORDBORG, DANEMARK
437 157 MEYER JEAN 10:28:51 F 73 253.30 TOURVILLE LA CAMPAGNE, FRANCE
438 513 SOM PHILIP 10:29:29 D 130 253.11 RHENEN, Pays-Bas
439 469 JANSSEN JOSEPH 10:32:29 E 167 252.20 KLIMMEN, Pays-Bas
440 476 FLIKWEERT J.JERDEN 10:34:29 D 131 251.60 NAALDWIJK, Pays-Bas
441 559 CHAMPAGNE HUGO 10:34:44 E 168 251.52 LANDEN, BELGIQUE
442 735 KLEIJNENBURG PIM 10:36:59 E 169 250.84 RHOON, Pays-Bas
443 343 DE BOECK JOHAN 10:37:31 F 74 250.68 BEVER, BELGIQUE
444 339 VERBESSELT JACK 10:39:41 E 170 250.03 CARNIERES, BELGIQUE
445 19 LETARD CHRISTIAN 10:40:11 E 171 249.88 RUEIL MALMAISON, FRANCE
446 289 GILLAIN ALEXANDRE 10:40:57 D 132 249.64 CHARLEROI, BELGIQUE
447 602 JORGENSEN FREDDIE 10:41:00 F 75 249.63 SONDERBORG, DANEMARK
448 561 MARCHANT THEO 10:43:18 E 172 248.93 LANDEN, BELGIQUE
449 706 BRISOUX GERARD 10:46:57 E 173 247.83 THIONVILLE, FRANCE
450 560 JAMMAER MARC 10:48:38 E 174 247.32 LANDEN, BELGIQUE
451 740 VAN WINGERDEN JAN 10:49:50 E 175 246.96 RIDDERKERK, Pays-Bas
452 448 MUTHER JACQUES 10:50:53 G 11 246.64 GOUVERNES, FRANCE
453 618 JORGENSEN PER 10:51:05 C 49 246.58 SOBORG, DANEMARK
454 616 ANDERSEN LEIF 10:53:47 F 76 245.76 SDR. STENDERUP, DANEMARK
455 159 RICHARD ALAIN 10:57:35 E 176 244.61 ECHENOZ LA MELINE, FRANCE
456 127 LEITCH JOHN 10:58:29 F 77 244.34 BETCHWORTH, SURREY, UK
457 260 KAMP EDWIN 10:58:54 E 177 244.21 ZWOLLE, Pays-Bas
458 570 NOER JAN 10:59:15 F 78 244.11 VEJLE, DANEMARK
459 392 SIEVERS RALF 11:03:48 D 133 242.73 WALLDORF, ALLEMAGNE
460 507 RENSING OSCAR 11:05:50 D 134 242.12 TIEL, Pays-Bas
461 594 JOHANSEN KIM 11:05:52 E 178 242.11 KOBENH, SV, DANEMARK
462 734 VOS PAUL 11:06:41 E 179 241.86 HEESWIJK, Pays-Bas
463 458 VAN DOORNE LIVIN 11:09:10 E 180 241.11 LEDEGEM, BELGIQUE
464 255 PAULSEN STEEN 11:09:42 E 181 240.95 VEJLE, DANEMARK
465 583 P.J. MEERMAN LEEN 11:12:08 D 135 240.21 JHOLEN, Pays-Bas
466 614 JORGENSEN KURT PETER 11:13:05 F 79 239.92 SILKEBORG, DANEMARK
467 755 STUYVENBERG MARK 11:14:46 D 136 239.41 DE BILT, Pays-Bas
468 613 PEDERSEN JORN W. 11:16:24 F 80 238.92 SONDERBORG, DANEMARK
469 588 NIELSEN STIG 11:16:37 E 182 238.85 NAESTVED, DANEMARK
470 569 HANSEN VILLY 11:18:01 E 183 238.43 VEJLE OST, DANEMARK
471 589 HANSEN JOHN 11:19:35 F 81 237.96 NAESTVED, DANEMARK
473 477 FLIKWEERT ARCO 11:21:49 D 137 237.28 NAALDWIJK, Pays-Bas
474 386 VANDERCAM DIDIER 11:23:33 E 184 236.76 LASNE, BELGIQUE
475 733 VISSERS THDOR 11:24:00 D 138 236.62 DEN BOSET, Pays-Bas
476 415 BASTIAENSSENS FRAN€OIS 11:25:12 E 185 236.26 KALMTHOUT, BELGIQUE
479 600 ULSOE CARSTEN 11:36:09 D 140 232.94 SILKEBORG, DANEMARK
480 297 JEHAES OLIVIER 11:39:20 D 141 231.98 NALINNES, BELGIQUE
481 344 VERSCHAEREN BEN 11:41:52 D 142 231.22 MORTSEL, Belgique
482 605 GABEL HANS JORGEN 11:49:47 F 82 228.82 AUGUSTENBORG, DANEMARK
483 669 VLOGMAN GERARD 11:52:36 D 143 227.97 VIJLEN, Pays-Bas
484 668 MENSINK CLEMENS 11:54:55 D 144 227.27 LEUVEN, BELGIQUE
485 598 DENSBERGL MICHEL 11:55:03 D 145 227.23 VIANEN, Pays-Bas
486 685 MARIEA NORBERT 12:00:52 D 146 225.47 NIJMEGEN, Pays-Bas
487 307 VAN DER SLUIS SAKE 12:02:50 F 83 224.87 HARLINGEN, Pays-Bas
488 389 SCHILLER CLAUDE 12:04:57 G 13 224.23 ORCHIES, FRANCE
489 621 BENDTSEN OLE 12:15:33 F 84 221.03 RINGSTED, DANEMARK
490 607 KOHLER HENRIK 12:31:21 E 186 216.25 SONDERBORG, DANEMARK
491 604 SORENSEN HANS CHR. M. 12:37:38 E 187 214.35 SONDERBORG, DANEMARK
492 610 ADELHELM JURGEN 12:37:40 E 188 214.34 SONDERBORG, DANEMARK
493 390 SCHILLER RENE 12:37:44 E 189 214.32 SAINT PATRICE, FRANCE
494 596 JOHANSEN PREBEN 12:38:18 D 147 214.14 AUGUSTENBORG, DANEMARK
495 591 OSTERBJERGHUUS ANETTE 12:45:22 B 4 212.01 NAESTVED, DANEMARK
496 363 VAN DEN BRANDEN KOEN 12:46:55 E 190 211.54 WOMMELGEM, Belgique

LEPAPE MARMOTTE GRANFONDO ALPES

Initialement prévue le dimanche 5 juillet, la 38ème édition de la LEPAPE Marmotte Granfondo Alpes se déroulera au final le samedi 5 septembre 2020.

Cette décision difficile à un seul but, mettre de notre côté toutes les chances pour que la LEPAPE Marmotte Granfondo Alpes se déroule dans les meilleures conditions pour les participants en s’assurant :

-Qu’ils puissent avoir la liberté de se déplacer et de venir en France : la Marmotte rassemblant près de 80 % d’étrangers.
-Qu’ils puissent avoir assez de temps pour s’entraîner pour ce défi sportif dans l’hypothèse ou le confinement se prolongerait encore.

Le programme de la Marmotte restera identique :
-Jeudi 3 septembre :Grimpée de l’Alpe d’Huez.
-Vendredi 4 et samedi 5 septembre : LEPAPE Rando des Marmottes
-Samedi 5 septembre : LEPAPE Marmotte Granfondo Alpes

Impact sur le trophée de l’Oisans :
La Marmotte Alpes faisant partie du Trophée de l’Oisans intégrant la Vaujany prévue le dimanche 28 juin. A ce jour, aucune décision n’a encore été prise sur une éventuelle date de report de cette épreuve.

Impact sur les Marmotte Series :
Afin d’assurer la cohérence des Marmotte Series, nous avons le regret de reporter la Marmotte Pyrénées, prévu initialement le 30 août à 2021. L’organisation de ces deux épreuves d'un même circuit à une semaine d’intervalle étant très compliquée, que ce soit d’un point de vue organisationnel ou sportif.

Pour les personnes déjà inscrites, vous n'avez rien à faire, votre inscription est automatiquement reportée.

Dans le cas où vous ne pourriez pas vous rendre disponibles à cette date là, vous pouvez nous le signaler et nous pourrons vous indiquer les conditions pour reporter votre inscription pour la Marmotte 2021

En vous remerciant pour votre compréhension.
TOP